Location: Frizzleburg
(41.0764°N, 80.4548°W)
Time: 02:30:23
(UTC+00:00)

BREEZE-M DEB (TANK) - Pass Details

Date: 17 November 2019
Orbit: 314 x 16427 km, 49.5° (Epoch: 07 December)

Event Time Altitude Azimuth Distance (km) Brightness Sun altitude
Exits shadow 10:47:57 16° 300° (WNW) 4,829 6.5 -15.8°
Maximum altitude 10:57:35 85° 28° (NNE) 963 3.5 -14.0°
Drops below altitude 10° 11:01:10 10° 119° (ESE) 1,825 6.3 -13.4°
Sets 11:02:29 0° 120° (ESE) 2,443 7.3 -13.1°
